GFSGL_850_temp_102.txt.gz
Temp
11 11 11 11 11 11 11 11 10 10 10 9 8 8 8 7 7 6 5 4 4 3 3 3 2 2 2 1 1 1 1 0 0 0 0 0 -0 -0 -0 -0 -0 -0 -0
10 11 11 11 11 11 10 9 9 9 8 8 8 7 6 6 5 5 4 3 3 2 2 2 2 1 1 1 0 0 -0 -0 -0 -0 -0 -0 -0 -0 -0 -0 -0 -0 -0
10 10 10 10 9 9 9 8 8 8 7 7 6 5 5 4 4 3 2 2 2 2 1 1 0 0 -0 -0 -0 -1 -1 -1 -1 -1 -1 -1 -1 -1 -1 -1 -1 -1 -1
10 10 9 9 9 8 8 7 7 6 6 5 4 4 3 3 2 2 2 1 1 1 0 -0 -0 -1 -1 -1 -1 -1 -2 -2 -1 -1 -1 -1 -1 -1 -2 -1 -1 -1 0
9 9 8 8 7 7 6 6 6 5 5 4 3 3 2 2 2 2 1 1 0 0 -0 -1 -1 -2 -2 -2 -2 -2 -2 -2 -2 -2 -2 -2 -2 -2 -2 -2 -2 -2 0
8 7 7 6 6 6 5 5 4 4 3 3 2 2 2 1 1 1 1 0 -0 -1 -1 -1 -2 -2 -2 -3 -3 -3 -2 -2 -2 -2 -2 -2 -2 -2 -2 -2 -2 -2 -2
7 6 6 6 5 5 4 3 3 2 2 2 1 1 1 1 0 0 -1 -1 -1 -1 -1 -1 -2 -3 -3 -3 -3 -3 -3 -3 -3 -2 -2 -2 -2 -1 -2 -2 -2 -2 -2
6 5 5 4 4 3 3 2 2 2 1 1 1 0 -0 -0 -1 -1 -2 -2 -2 -2 -2 -2 -3 -3 -3 -3 -3 -2 -2 -2 -2 -2 -1 -1 -2 -1 -2 -2 -2 -2 -2
5 4 4 3 3 2 2 2 1 1 0 0 -0 -1 -1 -1 -1 -2 -2 -2 -2 -3 -3 -3 -3 -3 -3 -3 -3 -2 -2 -2 -2 -2 -2 -2 -2 -2 -2 -2 -2 -3 -2
4 3 3 3 2 2 1 1 0 -0 -1 -1 -1 -2 -2 -2 -2 -2 -2 -3 -3 -4 -3 -3 -3 -3 -3 -3 -3 -3 -3 -3 -2 -2 -2 -2 -2 -3 -2 -3 -3 -3 -3
3 3 2 1 1 1 0 0 -0 -1 -1 -2 -2 -2 -2 -2 -2 -3 -3 -4 -4 -4 -4 -4 -4 -4 -4 -3 -3 -2 -3 -3 -3 -3 -3 -3 -3 -3 -3 -3 -3 -4 -3
2 2 1 1 0 -0 -0 -1 -1 -2 -2 -2 -3 -3 -3 -3 -3 -4 -5 -4 -4 -5 -4 -4 -4 -4 -4 -3 -3 -3 -4 -3 -3 -4 -4 -4 -4 -4 -4 -5 -4 -5 -5
1 1 0 0 -0 -1 -1 -1 -2 -2 -3 -3 -3 -3 -3 -4 -5 -5 -5 -5 -5 -5 -4 -4 -4 -4 -4 -4 -4 -4 -4 -4 -4 -5 -5 -5 -5 -5 -5 -5 -5 -5 -5
0 -0 -0 -1 -1 -1 -2 -3 -3 -3 -4 -4 -5 -5 -5 -6 -6 -5 -5 -5 -5 -5 -4 -4 -4 -4 -5 -4 -5 -5 -5 -5 -5 -5 -5 -5 -5 -5 -5 -5 -5 -5 -6
-0 -1 -1 -2 -2 -2 -3 -3 -4 -4 -5 -5 -6 -6 -6 -6 -6 -6 -5 -5 -5 -5 -5 -5 -5 -5 -5 -5 -5 -6 -6 -6 -6 -6 -6 -6 -6 -6 -6 -5 -5 -5 -6
-1 -2 -2 -3 -3 -3 -3 -3 -4 -5 -5 -5 -6 -6 -6 -6 -6 -6 -6 -6 -6 -5 -5 -5 -5 -6 -6 -6 -6 -6 -6 -6 -6 -6 -6 -6 -6 -6 -6 -6 -5 -5 -6
-1 -2 -3 -3 -3 -3 -4 -4 -4 -4 -5 -5 -7 -8 -7 -7 -7 -7 -6 -6 -6 -6 -6 -6 -6 -6 -6 -7 -7 -6 -6 -6 -6 -6 -6 -6 -6 -6 -6 -6 -5 -6 -6
-2 -2 -3 -3 -4 -4 -5 -5 -6 -6 -6 -5 -6 -8 -8 -7 -7 -7 -6 -7 -6 -6 -6 -6 -7 -7 -7 -7 -7 -7 -7 -7 -7 -6 -6 -6 -6 -6 -6 -6 -6 -6 -6
-2 -2 -3 -4 -4 -4 -5 -5 -6 -6 -6 -7 -7 -7 -7 -7 -7 -7 -7 -7 -7 -6 -7 -8 -7 -7 -7 -7 -7 -7 -7 -7 -7 -7 -6 -7 -7 -7 -7 -6 -6 -6 -6
-2 -2 -3 -3 -4 -4 -5 -5 -5 -6 -7 -8 -7 -7 -7 -7 -7 -7 -6 -6 -6 -7 -7 -7 -7 -7 -7 -7 -7 -7 -7 -7 -7 -7 -7 -7 -7 -7 -6 -6 -6 -6 -6
-2 -2 -3 -4 -4 -5 -5 -5 -6 -7 -7 -7 -7 -7 -8 -7 -7 -7 -7 -7 -7 -7 -7 -7 -7 -6 -6 -7 -7 -7 -7 -7 -7 -7 -7 -7 -7 -7 -6 -6 -6 -6 -6
-2 -2 -3 -3 -4 -4 -5 -6 -6 -7 -7 -7 -7 -6 -7 -7 -7 -7 -7 -7 -7 -7 -6 -6 -5 -5 -5 -6 -6 -7 -7 -7 -7 -7 -7 -7 -7 -7 -6 -6 -7 -6 -6
-2 -3 -3 -4 -4 -4 -5 -5 -6 -6 -6 -7 -7 -7 -7 -7 -7 -7 -7 -7 -6 -5 -5 -5 -5 -5 -5 -5 -6 -6 -7 -7 -7 -7 -7 -7 -7 -7 -7 -7 -6 -6 -5
-2 -3 -3 -3 -4 -4 -4 -5 -6 -6 -7 -7 -7 -7 -7 -7 -7 -7 -6 -6 -5 -4 -4 -4 -4 -4 -4 -5 -6 -6 -6 -6 -6 -6 -7 -7 -7 -7 -7 -6 -6 -5 -5
-2 -3 -3 -3 -4 -4 -4 -5 -7 -6 -6 -6 -7 -7 -7 -7 -6 -6 -6 -5 -4 -4 -4 -4 -4 -4 -5 -5 -5 -5 -6 -6 -6 -6 -6 -6 -6 -6 -6 -5 -4 -3 -2
-2 -3 -3 -4 -4 -4 -4 -5 -5 -6 -6 -7 -7 -7 -7 -6 -5 -5 -4 -4 -5 -4 -5 -5 -5 -5 -5 -4 -4 -4 -4 -4 -5 -5 -4 -3 -2 -2 -2 -3 -3 -2 -2

GFSGL_850_temp_105.txt.gz
Temp
11 11 11 11 11 11 10 10 10 10 10 10 9 9 8 8 7 7 6 6 5 4 4 3 3 2 2 1 1 1 0 0 -0 -0 -0 -0 -0 -0 -0 -0 -0 -0 -0
11 11 11 11 11 10 10 10 10 9 9 8 8 7 7 7 6 6 5 4 4 3 3 2 2 1 1 1 0 0 -0 -0 -1 -1 -1 -1 -1 -0 -1 -1 -1 -1 -1
10 10 10 10 10 10 9 9 8 8 8 7 7 7 6 5 5 4 4 3 3 2 2 2 1 1 0 -0 -0 -1 -1 -1 -1 -2 -2 -2 -1 -1 -1 -1 -1 -0 -0
10 10 9 9 9 8 8 8 7 7 6 6 5 5 4 4 3 2 2 2 1 1 1 0 -0 -0 -1 -1 -2 -2 -2 -2 -2 -2 -2 -2 -2 -1 -1 -1 -1 -1 -0
9 9 8 8 8 7 7 6 6 5 5 4 4 3 3 2 2 2 1 1 1 0 -0 -0 -1 -1 -1 -2 -2 -2 -3 -3 -3 -2 -2 -2 -2 -2 -3 -2 -2 -1 -0
8 8 7 7 6 6 6 5 5 4 3 3 2 2 2 1 1 1 0 0 -0 -1 -1 -1 -1 -1 -2 -2 -2 -3 -2 -3 -3 -2 -2 -2 -2 -3 -2 -2 -2 -3 -3
7 7 6 6 5 5 4 4 3 3 2 2 1 1 1 0 0 0 -0 -1 -1 -1 -1 -2 -2 -2 -2 -3 -3 -3 -3 -3 -3 -3 -2 -2 -2 -2 -3 -2 -2 -3 -2
6 6 5 4 4 3 3 2 2 1 1 0 0 0 0 -0 -1 -1 -1 -2 -2 -2 -2 -2 -2 -2 -3 -3 -3 -3 -2 -2 -2 -2 -3 -3 -3 -2 -2 -2 -2 -2 -2
5 4 4 3 3 2 2 1 1 0 0 -0 -0 -1 -1 -2 -2 -2 -2 -2 -2 -3 -3 -3 -3 -3 -3 -4 -4 -3 -2 -2 -3 -3 -2 -2 -2 -2 -1 -1 -2 -2 -2
4 3 3 3 2 2 1 1 0 -0 -1 -1 -1 -2 -2 -2 -3 -2 -3 -3 -3 -3 -4 -4 -4 -4 -4 -4 -3 -3 -3 -3 -3 -2 -3 -3 -2 -2 -2 -3 -3 -3 -3
3 3 2 2 1 0 0 -0 -0 -1 -1 -2 -2 -2 -3 -3 -2 -3 -3 -4 -4 -4 -4 -4 -4 -4 -4 -4 -4 -3 -3 -2 -3 -3 -3 -3 -3 -3 -3 -3 -4 -4 -4
2 2 1 1 0 -0 -0 -1 -1 -2 -2 -2 -3 -3 -3 -3 -3 -3 -5 -5 -4 -4 -4 -4 -4 -4 -4 -4 -3 -3 -3 -3 -3 -3 -4 -4 -4 -4 -4 -4 -5 -5 -4
2 1 0 -0 -1 -1 -1 -2 -2 -2 -3 -3 -3 -3 -3 -4 -4 -5 -5 -5 -5 -5 -5 -5 -4 -4 -4 -4 -4 -4 -4 -4 -4 -5 -5 -5 -5 -5 -5 -5 -5 -5 -5
1 0 -1 -1 -1 -2 -2 -2 -3 -3 -3 -4 -4 -5 -5 -6 -6 -6 -5 -5 -5 -5 -5 -4 -4 -5 -4 -5 -5 -5 -5 -5 -5 -5 -5 -5 -5 -5 -5 -5 -5 -5 -5
-0 -1 -1 -1 -2 -2 -2 -3 -3 -4 -5 -5 -5 -6 -6 -6 -7 -6 -6 -5 -6 -5 -5 -5 -5 -5 -5 -5 -5 -5 -5 -6 -6 -6 -6 -6 -6 -6 -6 -6 -6 -6 -5
-0 -1 -1 -2 -2 -3 -3 -3 -4 -5 -5 -5 -6 -7 -7 -7 -7 -6 -6 -6 -6 -6 -6 -6 -6 -6 -6 -6 -6 -6 -7 -7 -6 -6 -6 -6 -6 -6 -6 -6 -6 -6 -6
-1 -1 -2 -2 -3 -3 -3 -4 -4 -3 -4 -4 -6 -8 -8 -7 -7 -7 -6 -6 -6 -6 -6 -6 -6 -6 -6 -7 -7 -7 -7 -7 -7 -7 -7 -6 -6 -6 -6 -6 -6 -6 -6
-1 -1 -2 -2 -3 -3 -4 -4 -5 -5 -5 -4 -5 -7 -7 -8 -7 -7 -6 -7 -6 -6 -6 -6 -6 -7 -7 -7 -7 -7 -7 -7 -7 -7 -7 -7 -7 -6 -7 -7 -7 -6 -6
-1 -1 -2 -3 -3 -3 -4 -4 -4 -5 -6 -6 -5 -5 -6 -7 -7 -7 -7 -7 -7 -6 -7 -7 -7 -7 -7 -7 -7 -7 -7 -7 -7 -7 -7 -7 -6 -6 -7 -7 -7 -6 -6
-1 -2 -2 -2 -2 -3 -3 -4 -4 -5 -5 -6 -6 -7 -6 -7 -7 -7 -6 -7 -7 -7 -7 -7 -6 -6 -6 -6 -6 -7 -7 -7 -7 -7 -7 -7 -7 -7 -7 -7 -6 -6 -6
-1 -2 -2 -2 -2 -3 -3 -4 -5 -5 -6 -6 -6 -6 -8 -7 -7 -7 -7 -7 -7 -6 -6 -6 -6 -5 -5 -6 -6 -6 -6 -7 -7 -7 -7 -7 -7 -7 -7 -7 -7 -6 -6
-2 -2 -2 -2 -2 -3 -3 -4 -5 -5 -5 -6 -7 -7 -7 -7 -7 -7 -6 -6 -6 -5 -5 -5 -5 -5 -5 -5 -6 -6 -6 -7 -7 -7 -7 -7 -7 -7 -7 -7 -6 -6 -7
-2 -2 -2 -2 -3 -3 -4 -3 -4 -5 -6 -6 -6 -6 -6 -6 -6 -6 -6 -5 -5 -5 -5 -5 -5 -5 -5 -5 -6 -6 -6 -6 -7 -7 -7 -7 -7 -7 -7 -7 -7 -6 -6
-2 -2 -2 -3 -3 -4 -4 -4 -5 -6 -6 -6 -7 -7 -6 -6 -5 -5 -5 -5 -5 -5 -5 -6 -6 -6 -5 -5 -5 -6 -6 -6 -6 -6 -6 -7 -7 -7 -7 -7 -7 -6 -6
-2 -2 -2 -3 -3 -4 -4 -4 -5 -5 -6 -7 -7 -7 -6 -6 -6 -5 -5 -5 -5 -5 -5 -5 -5 -5 -5 -4 -4 -4 -5 -5 -5 -5 -5 -5 -6 -6 -6 -6 -5 -5 -4
-2 -2 -3 -3 -4 -4 -4 -4 -5 -6 -7 -7 -7 -7 -6 -6 -6 -5 -5 -6 -5 -5 -5 -4 -4 -3 -3 -3 -3 -3 -3 -3 -3 -3 -3 -3 -3 -3 -3 -3 -3 -3 -2

GFSGL_850_temp_108.txt.gz
Temp
11 10 10 9 9 10 10 10 9 9 9 10 10 9 9 8 8 7 7 6 6 5 5 4 4 3 2 2 1 1 1 0 -0 0 -0 -0 -0 0 0 0 -0 -0 -1
10 11 10 10 10 10 10 10 10 9 9 8 8 7 7 7 7 6 6 5 4 4 3 3 2 2 2 1 0 0 -0 -1 -1 -1 -1 -1 -1 -0 -1 -1 -1 -1 -1
11 11 10 10 10 10 9 8 8 8 7 7 7 6 6 6 5 5 4 3 3 2 2 2 1 1 1 0 -0 -0 -1 -1 -2 -2 -2 -2 -2 -1 -1 -1 -1 -0 -1
10 10 9 9 8 8 8 7 7 7 7 6 6 5 5 4 4 3 2 2 2 2 1 1 1 0 -0 -1 -1 -1 -2 -2 -2 -3 -3 -3 -3 -2 -2 -2 -1 -1 -1
9 9 8 8 7 7 7 7 6 6 5 5 4 3 3 2 2 2 1 1 1 1 0 0 -0 -1 -1 -1 -1 -2 -2 -2 -3 -3 -3 -2 -3 -3 -3 -2 -2 -2 -1
7 7 6 6 6 5 5 5 4 4 3 3 2 2 2 2 1 1 0 -0 -0 -0 -0 -1 -1 -1 -2 -2 -2 -2 -2 -2 -3 -3 -2 -2 -2 -2 -3 -3 -3 -3 -2
6 6 5 5 5 5 4 4 3 3 3 2 2 1 1 1 0 0 -0 -1 -1 -1 -2 -2 -2 -2 -2 -2 -3 -3 -3 -3 -3 -3 -3 -3 -2 -2 -3 -3 -3 -2 -2
6 6 5 5 4 4 3 2 2 1 1 0 0 -0 -0 -1 -1 -1 -2 -2 -2 -2 -2 -2 -2 -3 -3 -3 -3 -3 -3 -3 -3 -3 -3 -2 -2 -2 -3 -2 -2 -2 -2
5 4 3 3 2 2 1 1 0 -0 -0 -1 -1 -1 -1 -2 -2 -2 -2 -2 -2 -2 -2 -3 -3 -3 -4 -4 -4 -4 -3 -3 -3 -3 -3 -3 -2 -2 -2 -2 -2 -3 -2
4 3 2 2 1 1 0 -0 -0 -1 -1 -1 -1 -2 -2 -2 -3 -3 -3 -3 -3 -3 -4 -4 -4 -4 -4 -4 -4 -4 -4 -3 -3 -3 -2 -3 -3 -2 -2 -3 -3 -3 -3
3 2 2 1 1 0 -0 -1 -1 -1 -1 -2 -2 -3 -3 -3 -3 -3 -4 -5 -5 -5 -4 -4 -4 -5 -5 -4 -4 -3 -3 -3 -3 -2 -3 -3 -3 -3 -3 -3 -4 -4 -4
2 2 1 0 -0 -1 -1 -1 -1 -2 -2 -3 -3 -3 -3 -4 -4 -4 -5 -5 -5 -5 -5 -5 -5 -5 -4 -4 -3 -3 -4 -4 -4 -4 -4 -4 -4 -4 -4 -4 -4 -5 -5
2 1 0 -0 -1 -1 -1 -1 -2 -2 -3 -3 -3 -3 -3 -4 -5 -5 -6 -6 -6 -5 -5 -5 -5 -5 -4 -4 -4 -4 -5 -4 -4 -4 -4 -4 -5 -5 -5 -5 -5 -5 -5
1 0 -0 -1 -1 -1 -2 -2 -3 -3 -3 -4 -4 -4 -5 -6 -7 -7 -6 -6 -6 -5 -5 -5 -5 -5 -5 -5 -5 -5 -5 -5 -5 -5 -6 -6 -6 -6 -5 -5 -5 -5 -6
1 0 -0 -0 -1 -1 -2 -2 -3 -4 -5 -6 -5 -6 -7 -7 -7 -6 -6 -6 -6 -5 -5 -5 -5 -5 -6 -6 -5 -5 -5 -6 -6 -6 -6 -6 -6 -6 -6 -6 -6 -6 -6
1 0 -0 -1 -1 -1 -2 -3 -4 -4 -4 -4 -5 -6 -7 -7 -7 -6 -6 -6 -6 -6 -6 -6 -6 -6 -6 -6 -6 -6 -6 -7 -7 -7 -7 -7 -7 -7 -6 -6 -6 -6 -6
1 -0 -0 -1 -1 -2 -2 -3 -2 -2 -4 -4 -5 -6 -6 -7 -7 -7 -6 -6 -6 -6 -6 -6 -6 -6 -6 -7 -7 -7 -7 -7 -7 -7 -7 -7 -7 -7 -6 -6 -6 -7 -7
0 -0 -1 -1 -2 -2 -3 -3 -3 -3 -3 -3 -5 -5 -6 -7 -7 -7 -7 -7 -6 -6 -6 -6 -6 -6 -6 -6 -6 -6 -6 -7 -7 -7 -7 -7 -7 -7 -7 -7 -7 -7 -7
-0 -0 -1 -1 -2 -2 -3 -3 -3 -4 -4 -4 -4 -5 -5 -7 -7 -7 -7 -7 -7 -6 -6 -6 -6 -6 -6 -6 -6 -6 -6 -6 -7 -7 -7 -7 -7 -7 -7 -6 -7 -7 -7
-0 -1 -1 -1 -2 -2 -3 -3 -3 -4 -4 -5 -5 -6 -7 -7 -6 -6 -6 -6 -6 -6 -6 -6 -6 -6 -5 -5 -6 -6 -6 -6 -6 -7 -7 -7 -7 -7 -7 -7 -7 -7 -7
-1 -1 -1 -2 -2 -3 -3 -3 -3 -4 -5 -5 -6 -7 -7 -7 -6 -6 -6 -6 -6 -6 -6 -6 -6 -6 -6 -6 -6 -6 -6 -6 -6 -7 -7 -7 -7 -7 -7 -7 -7 -7 -7
-1 -1 -2 -2 -3 -3 -3 -3 -3 -4 -5 -5 -6 -6 -6 -6 -6 -6 -6 -6 -6 -5 -6 -6 -6 -6 -5 -6 -6 -6 -6 -6 -7 -7 -7 -7 -7 -7 -7 -7 -7 -7 -7
-1 -1 -2 -3 -3 -3 -3 -3 -3 -4 -5 -6 -7 -7 -6 -6 -6 -6 -6 -6 -5 -5 -5 -5 -5 -5 -5 -5 -5 -5 -5 -6 -6 -7 -7 -7 -7 -7 -7 -7 -7 -7 -7
-1 -2 -2 -3 -3 -3 -4 -3 -3 -4 -6 -7 -7 -7 -7 -6 -6 -6 -6 -6 -5 -5 -5 -4 -4 -4 -3 -3 -3 -3 -3 -4 -5 -5 -6 -6 -6 -7 -7 -7 -7 -7 -6
-2 -2 -3 -3 -3 -4 -4 -4 -4 -5 -6 -8 -7 -7 -6 -7 -6 -6 -6 -6 -5 -5 -4 -4 -3 -3 -3 -3 -3 -3 -3 -3 -3 -3 -3 -4 -4 -4 -4 -4 -4 -4 -5
-2 -2 -3 -3 -4 -4 -4 -4 -5 -6 -7 -8 -7 -7 -7 -6 -6 -6 -6 -6 -5 -4 -4 -4 -4 -3 -3 -3 -3 -3 -3 -3 -3 -3 -3 -3 -3 -2 -2 -2 -2 -2 -2

GFSGL_850_temp_114.txt.gz
Temp
9 10 9 9 9 9 9 9 9 9 8 8 7 6 7 7 7 8 7 7 7 7 7 6 6 5 4 4 4 2 2 2 2 3 2 2 1 0 0 0 -0 -0 -0
9 9 9 9 8 8 8 8 8 8 7 7 7 6 6 7 7 6 6 6 6 5 5 5 4 4 3 2 1 1 1 1 1 1 1 1 0 -0 -1 -1 -1 -1 -1
9 9 9 9 9 8 8 8 8 8 7 7 6 6 6 6 6 5 5 5 4 4 4 3 2 2 2 2 1 1 1 0 0 0 -0 -0 -0 -0 -1 -1 -1 -1 -1
9 9 9 8 8 8 7 7 7 7 6 6 6 6 5 5 5 4 4 3 2 2 2 1 1 1 1 1 1 1 0 0 0 -0 -1 -2 -1 -0 -1 -1 -2 -2 -2
8 8 7 7 7 7 6 6 6 5 5 5 4 4 4 3 3 2 1 1 1 1 1 1 0 -0 -0 -0 -0 -0 -0 -0 -1 -1 -2 -1 -1 -0 -1 -2 -2 -1 -2
7 7 6 6 6 6 5 5 5 5 4 4 4 3 3 2 2 1 1 0 1 0 0 -0 -0 -1 -1 -1 -1 -1 -1 -1 -1 -1 -2 -2 -1 -2 -2 -2 -2 -2 -2
7 7 6 6 6 5 5 5 4 4 4 3 3 2 2 1 1 1 0 -1 -1 -1 -1 -2 -2 -2 -2 -2 -2 -2 -2 -2 -2 -2 -2 -2 -2 -2 -2 -2 -2 -2 -2
6 6 6 5 5 5 4 4 3 3 2 2 1 1 1 -0 0 -1 -1 -1 -2 -2 -2 -2 -3 -3 -3 -3 -3 -3 -2 -2 -3 -3 -3 -3 -2 -2 -2 -2 -2 -2 -2
6 5 5 4 4 3 3 3 2 1 1 0 0 0 -1 -1 -0 -1 -1 -3 -2 -3 -3 -3 -3 -3 -3 -3 -3 -3 -3 -3 -3 -3 -3 -3 -2 -2 -2 -2 -1 -2 -2
4 4 3 3 2 2 1 1 0 -0 -0 -0 -0 -0 -0 -1 -1 -1 -2 -4 -3 -3 -3 -4 -4 -4 -4 -4 -4 -4 -4 -3 -3 -3 -3 -3 -3 -3 -3 -3 -2 -2 -2
4 3 3 2 2 1 0 0 0 -0 -0 -0 -1 -1 -2 -3 -3 -2 -3 -5 -5 -4 -5 -4 -4 -5 -5 -4 -4 -4 -3 -3 -3 -2 -3 -3 -4 -3 -3 -3 -3 -3 -3
3 3 2 1 1 1 1 0 -0 -0 -1 -3 -3 -3 -4 -4 -5 -4 -6 -5 -5 -5 -5 -5 -5 -5 -4 -4 -4 -4 -4 -4 -4 -4 -4 -4 -4 -3 -3 -3 -4 -4 -4
3 2 1 1 1 0 -0 -0 -1 -1 -3 -4 -4 -4 -4 -5 -5 -6 -6 -6 -5 -5 -5 -5 -5 -4 -4 -4 -4 -5 -5 -5 -5 -4 -4 -4 -4 -4 -5 -5 -5 -5 -5
2 1 1 0 0 -0 -0 -0 -1 -2 -4 -4 -4 -5 -5 -5 -5 -6 -6 -5 -5 -5 -5 -4 -4 -5 -5 -5 -6 -6 -6 -6 -6 -6 -6 -6 -6 -6 -6 -6 -6 -6 -6
1 1 1 1 0 -0 -0 -1 -1 -3 -2 -3 -5 -6 -6 -6 -6 -6 -6 -5 -5 -5 -5 -5 -5 -5 -6 -6 -6 -6 -6 -6 -6 -6 -6 -6 -6 -6 -6 -6 -6 -6 -6
1 1 1 0 -0 -0 -1 -1 -1 -2 -2 -3 -3 -4 -5 -6 -6 -6 -6 -5 -6 -6 -6 -6 -6 -6 -7 -7 -7 -6 -6 -6 -7 -7 -6 -6 -6 -7 -7 -6 -6 -6 -6
1 1 1 0 -0 -1 -1 -1 -2 -2 -2 -3 -3 -4 -5 -7 -6 -6 -6 -6 -6 -5 -5 -5 -6 -6 -6 -6 -6 -6 -7 -7 -7 -7 -7 -7 -6 -6 -7 -7 -6 -6 -6
1 1 0 -0 -1 -1 -1 -2 -3 -3 -3 -4 -4 -4 -7 -6 -6 -5 -5 -5 -5 -6 -6 -7 -6 -6 -6 -6 -6 -6 -6 -6 -6 -6 -6 -6 -6 -6 -6 -7 -7 -6 -6
1 1 0 -0 -1 -1 -1 -2 -2 -3 -4 -5 -4 -5 -5 -5 -5 -5 -6 -6 -6 -7 -6 -5 -5 -5 -5 -5 -5 -6 -6 -6 -6 -6 -6 -6 -6 -6 -6 -6 -6 -6 -6
1 0 -0 -1 -1 -1 -2 -2 -3 -3 -4 -4 -5 -6 -7 -6 -5 -5 -6 -7 -6 -6 -5 -4 -4 -4 -4 -4 -4 -4 -4 -5 -6 -7 -7 -6 -6 -6 -6 -6 -6 -6 -6
1 0 -0 -1 -2 -2 -2 -3 -3 -3 -4 -7 -7 -7 -7 -6 -6 -6 -7 -7 -7 -5 -4 -4 -4 -4 -3 -3 -4 -3 -4 -4 -4 -5 -6 -7 -6 -6 -6 -6 -6 -6 -6
0 -0 -1 -1 -2 -2 -3 -3 -3 -3 -6 -7 -7 -6 -5 -6 -6 -6 -7 -7 -6 -5 -4 -4 -4 -4 -4 -3 -4 -4 -4 -4 -4 -4 -4 -5 -5 -6 -6 -6 -6 -6 -6
0 -0 -1 -2 -2 -3 -3 -3 -5 -6 -7 -8 -7 -6 -6 -6 -6 -6 -6 -6 -5 -5 -4 -4 -4 -4 -4 -4 -3 -4 -4 -3 -3 -3 -3 -3 -4 -4 -5 -5 -6 -6 -6
-0 -1 -1 -2 -2 -3 -3 -4 -6 -6 -5 -8 -8 -7 -7 -6 -6 -6 -6 -6 -5 -5 -5 -4 -4 -4 -4 -4 -4 -4 -4 -4 -4 -3 -3 -3 -3 -3 -3 -3 -3 -4 -4
-1 -1 -2 -2 -3 -3 -3 -4 -5 -5 -6 -7 -8 -7 -7 -7 -7 -6 -6 -6 -6 -5 -5 -5 -5 -4 -4 -4 -4 -4 -4 -4 -4 -4 -4 -3 -3 -3 -3 -3 -3 -3 -3
-1 -1 -2 -2 -3 -3 -4 -4 -4 -5 -6 -6 -8 -8 -8 -7 -7 -7 -6 -6 -6 -6 -5 -5 -5 -5 -5 -4 -4 -4 -4 -4 -4 -4 -4 -4 -3 -3 -3 -3 -3 -3 -3

GFSGL_850_temp_117.txt.gz
Temp
9 9 9 8 9 9 9 9 9 9 9 8 7 7 7 7 6 6 6 7 7 7 7 6 6 5 5 4 4 4 4 4 3 3 3 3 3 3 2 1 1 0 0
9 9 8 9 9 9 8 8 8 7 7 7 7 7 6 6 6 5 6 6 6 5 5 5 5 4 5 4 3 3 3 2 2 2 2 2 1 1 1 1 -0 -0 -0
9 9 8 9 8 8 8 8 8 7 7 6 6 6 6 5 5 4 4 4 4 4 4 4 4 4 3 2 3 2 2 2 2 1 1 1 1 0 0 0 0 -0 -0
8 8 8 8 8 7 7 7 6 6 6 5 5 5 5 5 5 5 4 4 3 3 3 2 2 2 2 2 2 2 2 2 1 1 1 1 -0 -1 -1 -0 -0 -1 -1
8 8 7 7 7 7 6 6 6 6 5 4 4 4 4 3 4 4 3 3 2 2 2 2 2 1 1 1 1 0 0 0 0 0 0 -0 -0 -1 -1 -1 -1 -1 -1
7 7 7 6 6 6 5 5 5 5 4 4 3 3 2 1 3 2 2 2 1 1 1 1 1 0 -0 -0 -1 -1 -1 -1 -1 -1 -1 -1 -1 -1 -1 -2 -2 -2 -2
6 5 4 4 4 3 3 3 2 2 2 2 1 1 1 0 0 1 1 1 -0 -0 -0 -1 -1 -1 -1 -1 -1 -1 -1 -1 -1 -1 -1 -1 -2 -1 -1 -1 -2 -2 -1
5 5 4 3 3 3 2 2 2 1 1 1 0 -0 -0 -1 -0 0 0 -0 -1 -1 -1 -1 -2 -2 -2 -2 -2 -2 -2 -2 -2 -2 -2 -2 -2 -2 -2 -2 -2 -2 -2
5 4 3 3 3 2 2 1 1 1 1 0 -0 -1 -1 -0 -2 0 -0 -1 -2 -2 -2 -2 -2 -3 -3 -3 -3 -3 -3 -3 -3 -2 -2 -2 -2 -2 -2 -2 -2 -2 -2
4 5 5 4 3 2 2 2 2 0 1 1 -0 -1 -1 -1 -2 -1 -0 -1 -3 -3 -3 -3 -4 -4 -4 -4 -4 -4 -3 -3 -3 -3 -3 -3 -3 -3 -2 -2 -2 -3 -2
5 4 4 3 3 3 2 2 2 2 1 -0 -0 -0 -1 -2 -3 -3 -1 -2 -4 -4 -4 -4 -4 -4 -4 -4 -4 -4 -3 -3 -3 -3 -3 -3 -3 -3 -3 -3 -3 -3 -2
5 4 3 2 3 2 1 1 1 1 -0 -1 -1 -2 -2 -3 -3 -4 -4 -5 -5 -5 -5 -4 -4 -4 -4 -4 -4 -4 -3 -3 -4 -4 -4 -4 -4 -4 -4 -4 -4 -4 -4
4 3 3 2 2 2 1 0 -0 0 0 -1 -2 -3 -3 -4 -4 -4 -5 -5 -5 -5 -4 -4 -4 -4 -4 -4 -4 -4 -4 -5 -5 -5 -5 -5 -5 -5 -4 -4 -4 -4 -4
3 2 2 1 1 1 1 1 0 -1 -1 -2 -3 -4 -4 -4 -5 -5 -5 -5 -5 -5 -4 -4 -5 -5 -5 -5 -5 -5 -6 -5 -6 -6 -5 -5 -5 -5 -5 -5 -5 -5 -5
1 1 1 0 0 0 1 0 -0 -0 -1 -1 -2 -3 -5 -5 -6 -5 -5 -5 -5 -5 -5 -5 -5 -5 -6 -6 -6 -6 -6 -6 -6 -6 -6 -6 -6 -6 -6 -6 -6 -6 -6
1 -0 -0 -0 0 0 -0 -2 -0 -1 -1 -1 -2 -3 -4 -6 -6 -5 -5 -5 -5 -6 -6 -6 -6 -6 -6 -6 -6 -6 -6 -7 -7 -7 -6 -6 -6 -6 -6 -6 -6 -6 -6
0 -0 1 0 -1 -0 -0 -1 -2 -2 -1 -2 -2 -3 -3 -6 -6 -6 -5 -5 -6 -6 -6 -6 -6 -6 -6 -6 -6 -6 -6 -6 -6 -6 -6 -6 -6 -6 -6 -6 -6 -6 -6
0 1 0 0 0 -0 -1 -1 -1 -1 -3 -4 -5 -5 -5 -6 -6 -5 -5 -5 -6 -6 -6 -6 -6 -5 -5 -5 -4 -4 -5 -5 -6 -6 -6 -6 -6 -6 -6 -6 -6 -6 -6
2 2 1 0 0 -0 -1 -2 -2 -3 -4 -5 -4 -6 -6 -6 -6 -6 -6 -6 -6 -7 -6 -5 -4 -4 -4 -4 -4 -4 -4 -4 -5 -5 -6 -6 -6 -6 -6 -6 -6 -6 -6
1 2 1 0 -0 -1 -1 -2 -3 -4 -5 -5 -6 -7 -5 -6 -6 -6 -7 -7 -7 -6 -5 -4 -4 -4 -4 -4 -4 -4 -4 -4 -4 -4 -4 -5 -6 -6 -6 -6 -6 -6 -6
2 1 0 -0 -1 -1 -2 -2 -3 -4 -5 -6 -6 -7 -7 -7 -6 -6 -7 -7 -6 -5 -5 -4 -4 -4 -4 -4 -4 -4 -4 -4 -4 -4 -4 -4 -4 -5 -6 -6 -6 -6 -6
1 1 0 -0 -1 -1 -2 -2 -3 -3 -5 -6 -6 -6 -6 -7 -6 -6 -7 -7 -6 -5 -5 -5 -4 -4 -5 -5 -4 -4 -4 -4 -4 -4 -4 -3 -4 -3 -4 -5 -5 -6 -6
1 1 -0 -1 -1 -2 -2 -3 -3 -5 -6 -6 -7 -7 -7 -6 -6 -6 -6 -6 -6 -5 -5 -5 -4 -4 -4 -5 -5 -5 -4 -4 -4 -4 -4 -4 -4 -3 -3 -3 -4 -4 -4
1 0 -0 -1 -2 -2 -3 -4 -4 -5 -4 -7 -7 -8 -7 -6 -6 -7 -7 -6 -6 -6 -5 -5 -5 -5 -5 -5 -5 -5 -5 -5 -5 -5 -5 -4 -4 -4 -3 -3 -3 -3 -3
1 -0 -1 -1 -2 -3 -3 -4 -5 -5 -5 -6 -7 -8 -7 -7 -7 -7 -7 -7 -6 -6 -6 -5 -5 -5 -5 -5 -5 -5 -5 -4 -4 -4 -4 -4 -4 -4 -3 -3 -3 -3 -3
0 -0 -1 -2 -2 -3 -3 -4 -4 -4 -5 -8 -7 -7 -7 -8 -8 -8 -8 -8 -7 -6 -6 -6 -5 -5 -5 -5 -5 -4 -4 -4 -4 -4 -4 -4 -4 -4 -4 -4 -4 -4 -3

GFSGL_850_temp_123.txt.gz
Temp
9 9 9 9 9 9 9 9 9 9 8 8 8 7 7 6 5 5 5 5 5 6 6 6 6 6 6 6 5 5 5 4 4 4 4 4 3 3 3 2 2 2 1
8 9 9 8 9 9 8 8 8 8 7 7 6 6 5 5 5 5 5 5 5 5 6 6 5 5 5 4 4 4 3 3 2 2 2 2 2 2 1 1 1 1 0
8 9 9 8 8 8 8 7 7 7 6 5 5 5 5 5 4 4 4 4 4 4 4 4 4 4 4 3 3 2 2 2 2 1 1 1 1 1 1 1 0 0 -0
8 8 8 8 8 7 7 7 7 7 6 5 5 6 5 5 4 4 4 4 4 4 3 3 3 2 2 2 1 1 1 1 1 1 0 0 0 0 0 -0 -0 -0 -0
8 7 7 7 7 7 7 6 6 6 5 5 5 5 4 4 4 4 4 4 3 3 3 2 2 2 1 1 1 0 0 -0 -0 -0 -1 -1 -1 -1 -1 -1 -1 -1 -1
8 8 7 7 6 6 6 5 5 5 4 4 4 4 4 4 3 3 3 3 2 2 2 1 1 1 1 1 1 0 -1 -1 -1 -2 -2 -2 -1 -1 -2 -2 -2 -2 -2
7 6 6 6 6 5 5 5 4 4 3 3 3 3 3 2 3 3 3 2 2 2 1 1 1 1 0 -0 -1 -1 -1 -2 -2 -2 -3 -2 -2 -2 -2 -2 -2 -2 -2
6 5 5 5 5 4 4 3 3 2 2 1 1 1 1 1 1 2 1 1 1 1 -0 -0 -1 -1 -2 -2 -2 -3 -3 -3 -3 -3 -3 -3 -3 -3 -2 -2 -2 -2 -2
6 6 5 5 4 3 3 2 2 2 1 1 1 1 0 -0 -1 0 1 0 -1 -1 -1 -2 -3 -2 -2 -3 -3 -3 -3 -3 -3 -3 -3 -3 -3 -3 -2 -3 -3 -3 -3
5 5 5 4 4 3 3 3 2 2 2 1 0 -1 -1 -1 -2 -2 -1 -1 -2 -3 -3 -3 -3 -3 -4 -3 -3 -3 -3 -3 -3 -3 -3 -3 -3 -3 -3 -3 -4 -3 -3
5 5 5 4 4 3 3 2 2 1 1 0 -0 -1 -2 -2 -3 -4 -4 -4 -4 -4 -4 -4 -4 -3 -3 -3 -3 -4 -4 -4 -4 -4 -4 -5 -4 -4 -4 -5 -4 -4 -4
6 5 5 4 4 3 3 2 1 1 1 -0 -1 -2 -2 -2 -3 -4 -4 -4 -4 -4 -4 -4 -4 -4 -4 -4 -4 -4 -4 -4 -4 -5 -6 -6 -6 -6 -6 -6 -5 -5 -5
6 6 5 4 4 3 3 2 2 1 1 1 -0 -1 -1 -1 -2 -3 -3 -4 -4 -4 -4 -4 -4 -5 -5 -5 -5 -4 -4 -4 -5 -6 -6 -6 -6 -6 -6 -6 -6 -6 -6
6 6 5 4 4 3 3 2 2 2 1 0 0 -0 -1 -2 -2 -3 -3 -4 -5 -4 -5 -4 -3 -4 -4 -4 -4 -4 -5 -6 -5 -5 -5 -6 -6 -6 -6 -6 -6 -6 -6
6 5 5 4 3 3 2 2 1 1 1 0 -0 -0 -1 -2 -3 -4 -4 -5 -5 -5 -5 -3 -3 -4 -5 -6 -5 -5 -5 -5 -5 -5 -5 -5 -6 -6 -6 -6 -6 -6 -6
6 5 5 4 3 2 2 2 1 1 0 -0 -0 -0 -1 -1 -4 -5 -5 -5 -5 -5 -6 -6 -6 -6 -6 -6 -5 -5 -5 -5 -5 -5 -5 -5 -5 -5 -6 -6 -6 -6 -6
6 5 5 4 3 2 2 1 1 -0 -0 -1 -1 -1 -1 -2 -4 -5 -6 -6 -6 -6 -6 -6 -6 -6 -5 -6 -4 -4 -4 -5 -5 -5 -5 -5 -5 -5 -5 -5 -6 -6 -6
5 5 4 4 3 2 1 1 0 -0 -1 -1 -2 -3 -3 -2 -6 -6 -6 -6 -6 -6 -6 -6 -6 -5 -4 -4 -4 -4 -4 -4 -4 -4 -5 -5 -5 -5 -5 -5 -5 -6 -6
5 5 4 3 3 2 1 1 -0 -1 -1 -2 -3 -4 -4 -4 -6 -6 -6 -7 -7 -7 -7 -6 -5 -5 -5 -4 -4 -5 -4 -4 -4 -5 -4 -5 -4 -4 -4 -4 -4 -5 -5
5 4 4 3 3 2 1 0 -0 -1 -2 -3 -3 -4 -4 -5 -7 -7 -7 -7 -7 -7 -7 -6 -6 -5 -5 -6 -6 -5 -5 -5 -5 -5 -5 -5 -4 -5 -5 -5 -5 -4 -4
5 4 4 3 2 2 1 0 -0 -1 -2 -3 -3 -4 -5 -6 -7 -7 -7 -7 -7 -7 -6 -6 -6 -5 -5 -6 -6 -5 -5 -6 -6 -6 -5 -5 -5 -6 -6 -5 -5 -5 -5
4 4 4 3 2 1 1 -0 -1 -2 -3 -3 -4 -4 -5 -5 -7 -7 -7 -7 -7 -7 -7 -7 -6 -6 -6 -6 -6 -6 -6 -6 -6 -6 -6 -5 -6 -6 -5 -6 -5 -5 -5
4 4 3 2 1 1 0 -1 -1 -2 -3 -4 -4 -5 -5 -5 -7 -7 -7 -7 -7 -8 -7 -7 -6 -6 -6 -6 -6 -6 -6 -6 -6 -6 -6 -6 -5 -6 -6 -5 -5 -5 -5
4 3 3 2 1 1 -0 -1 -2 -2 -3 -5 -5 -5 -5 -5 -6 -8 -8 -8 -8 -8 -7 -7 -7 -7 -6 -6 -6 -6 -6 -6 -6 -6 -6 -6 -6 -6 -5 -5 -5 -4 -4
3 3 2 2 1 0 -0 -1 -2 -3 -4 -4 -5 -6 -6 -5 -6 -8 -9 -9 -9 -8 -7 -7 -6 -6 -6 -6 -6 -5 -5 -5 -6 -6 -6 -6 -6 -6 -5 -5 -4 -4 -4
3 2 2 1 1 -0 -1 -1 -2 -3 -4 -4 -5 -5 -6 -6 -5 -7 -8 -9 -9 -8 -7 -7 -6 -6 -6 -5 -5 -5 -5 -6 -6 -6 -6 -5 -5 -5 -5 -5 -4 -4 -4